Hourly Data Report for August 11, 2020

SVARTEVAEG
NUNAVUT
Current Station Operator: ECCC - MSC

81°09'39.000" N
91°48'59.060" W
72.00 m
2403833
71872
NSG

Download Data

Hourly Data (August 2020)
Hourly Data Report for August 11, 2020
TIME Temp Definition
°C
Dew Point Definition
°C
Rel Hum Definition
%
Wind Dir Definition
10's deg

Wind Spd Definition
km/h
Visibility Definition
km
Stn Press Definition
kPa
Hmdx Definition


Wind Chill Definition


Weather Definition


00:00 5.2 0.4 71 19 8   99.48     LegendNANA
01:00 2.8 -0.2 81 16 5   99.47     LegendNANA
02:00 2.5 -0.8 79 21 7   99.46     LegendNANA
03:00 4.7 1.2 78 21 7   99.43     LegendNANA
04:00 6.1 0.4 67 18 10   99.42     LegendNANA
05:00 6.1 0.7 68 18 14   99.40     LegendNANA
06:00 6.0 1.4 72 18 21   99.37     LegendNANA
07:00 6.8 1.7 70 17 21   99.35     LegendNANA
08:00 8.0 1.8 65 17 23   99.32     LegendNANA
09:00 8.1 1.8 64 17 23   99.31     LegendNANA
10:00 9.2 1.8 60 18 31   99.29     LegendNANA
11:00 9.7 1.9 58 17 29   99.28     LegendNANA
12:00 9.6 2.0 59 18 23   99.27     LegendNANA
13:00 10.1 2.2 58 18 19   99.26     LegendNANA
14:00 11.4 2.3 53 18 21   99.25     LegendNANA
15:00 7.1 0.1 61 17 12   99.26     LegendNANA
16:00 5.4 0.6 71 35 10   99.28     LegendNANA
17:00 2.9 0.3 83 34 10   99.30     LegendNANA
18:00 4.8 -0.1 71 30 11   99.28     LegendNANA
19:00 6.3 0.8 68 28 14   99.25     LegendNANA
20:00 3.2 -0.3 78 35 8   99.23     LegendNANA
21:00 1.8 -0.2 86 35 14   99.22     LegendNANA
22:00 1.0 -0.5 90 34 14   99.18     LegendNANA
23:00 0.8 -0.1 94 35 12   99.16     LegendNANA

Notes on Data Quality.

Legend

  • E = Estimated
  • M = Missing
  • NA = Not Available*
  • [empty] = Indicates an unobserved value
Date modified: